[[{"header":{"parameterUnit":"m.s-1","parameterCategory":1,"la1":30.2991,"la2":30.254,"lo1":-89.0895,"lo2":-89.0444,"dy":0.0017,"dx":0.0017,"nx":28,"ny":28,"refTime":"2024-10-15T21:00:00:Z","depth":0,"parameterNumber":2,"parameterNumberName":"U-component_of_WINDS"},"data":[0,0,0,0,0,0,0,0,0,0,0,0,0,0,0,0,0,0,0,0,0,0,0,0,0,0,0,0,0,0,0,0,0,0,0,0,0,0,0,0,0,0,0,0,0,0,0,0,0,0,0,0,0,0,0,0,0,0,-3.2262,-3.2262,0,-3.2233,-3.2232,-3.2232,-3.2127,-3.2124,-3.2122,-3.212,-3.2092,-3.2093,-3.2095,0,0,0,0,0,0,0,0,0,0,0,0,0,-3.223,-3.2231,-3.2262,-3.2262,-3.2262,-3.2233,-3.2232,-3.2232,-3.2127,-3.2124,-3.2121,-3.2119,-3.2091,-3.2093,-3.2095,0,0,0,0,0,0,0,0,0,0,0,0,0,-3.2227,-3.2232,-3.2262,-3.2206,-3.22,-3.2233,-3.2232,-3.2232,-3.2128,-3.2124,-3.2121,-3.2117,-3.2091,-3.2093,-3.2095,-3.218,0,0,-3.2102,-3.2103,0,0,0,0,0,0,0,0,-3.2227,-3.2228,-3.2214,-3.221,-3.2204,-3.218,-3.2211,-3.2215,-3.2129,-3.2155,-3.212,-3.2116,-3.2124,-3.2123,-3.2126,-3.2179,-3.2178,-3.2102,-3.2103,-3.2104,-3.2105,0,0,0,0,0,0,0,-3.2227,-3.2229,-3.2251,-3.2214,-3.2208,-3.2183,-3.2178,-3.2211,-3.216,-3.2153,-3.2145,-3.2143,-3.212,-3.2124,-3.2124,-3.2177,-3.2102,-3.2104,-3.2105,-3.2106,-3.2301,-3.2305,0,0,0,0,0,0,-3.2235,-3.223,-3.2252,-3.225,-3.2207,-3.2186,-3.2181,-3.2191,-3.216,-3.2151,-3.2146,-3.2138,-3.2122,-3.2122,-3.2123,-3.2222,-3.2104,-3.2106,-3.2108,-3.2297,-3.2302,-3.2306,0,0,0,0,0,0,-3.2235,-3.2238,-3.2253,-3.2238,-3.2237,-3.219,-3.2203,-3.2192,-3.2196,-3.2154,-3.2145,-3.2159,-3.2119,-3.212,-3.2167,-3.222,-3.2107,-3.2109,-3.2293,-3.2299,-3.2304,-3.2421,0,0,0,0,0,0,-3.2235,-3.2239,-3.227,-3.2239,-3.2239,-3.2297,-3.2206,-3.2194,-3.22,-3.2189,-3.2164,-3.2156,-3.2116,-3.2164,-3.2169,-3.2221,-3.2111,-3.2288,-3.2296,-3.2302,-3.2412,-3.243,-3.2445,0,0,0,0,0,-3.2234,-3.2305,-3.2273,-3.2276,-3.2277,-3.23,-3.23,-3.2252,-3.2204,-3.2236,-3.221,-3.2157,-3.2213,-3.217,-3.2175,-3.2228,-3.2285,-3.2293,-3.2302,-3.2405,-3.2427,-3.2445,0,0,0,0,0,0,-3.2344,-3.2299,-3.2263,-3.2326,-3.2318,-3.2283,-3.2321,-3.2276,-3.2282,-3.2272,-3.2212,-3.2208,-3.2264,-3.225,-3.2203,-3.231,-3.224,-3.225,-3.2317,-3.2337,-3.2353,-3.2356,-3.2113,0,0,0,0,0,-3.2375,-3.2397,-3.2357,-3.2417,-3.2414,-3.2369,-3.2377,-3.2341,-3.233,-3.2326,-3.2303,-3.2296,-3.2311,-3.2323,-3.2335,-3.2409,-3.2403,-3.2448,-3.2465,-3.2478,-3.2488,-3.2528,-3.2548,-3.2335,-3.2335,-3.2335,0,0,-3.244,-3.2419,-3.2437,-3.2438,-3.2427,-3.2453,-3.2367,-3.2396,-3.2415,-3.2331,-3.2375,-3.2358,-3.2345,-3.2407,-3.2433,-3.2397,-3.2546,-3.2489,-3.2501,-3.2503,-3.2539,-3.2559,-3.2578,-3.2341,-3.234,-3.2339,0,0,-3.2573,-3.2558,-3.2606,-3.2597,-3.2582,-3.2552,-3.2564,-3.2535,-3.2521,-3.2563,-3.2501,-3.2523,-3.2551,-3.2545,-3.2546,-3.2677,-3.263,-3.2682,-3.2769,-3.2809,-3.2826,-3.284,-3.2889,-3.2907,-3.2692,-3.2692,-3.2693,0,-3.2656,-3.2691,-3.2637,-3.2671,-3.2675,-3.2599,-3.2648,-3.2642,-3.2633,-3.2637,-3.2597,-3.2631,-3.2617,-3.2677,-3.271,-3.2712,-3.2725,-3.2686,-3.2827,-3.2842,-3.2855,-3.29,-3.2918,-3.2699,-3.2698,-3.2698,-3.2697,0,-3.2795,-3.282,-3.2861,-3.2853,-3.2861,-3.2903,-3.2856,-3.287,-3.2833,-3.2808,-3.2853,-3.2834,-3.2841,-3.2852,-3.2817,-3.2908,-3.2887,-3.2838,-3.2767,-3.2883,-3.2925,-3.2941,-3.2709,-3.2706,-3.2704,-3.2703,0,0,-3.2996,-3.2958,-3.2974,-3.297,-3.2949,-3.2967,-3.3006,-3.3013,-3.3028,-3.3023,-3.3055,-3.3081,-3.3036,-3.3037,-3.3,-3.3035,-3.3142,-3.2982,-3.2981,-3.3014,-3.3244,-3.3282,-3.3303,-3.311,-3.3113,-3.3115,-3.3245,0,-3.3123,-3.3187,-3.314,-3.3212,-3.3236,-3.3165,-3.3199,-3.319,-3.3167,-3.3184,-3.3158,-3.3178,-3.3116,-3.3117,-3.3148,-3.3123,-3.3188,-3.3112,-3.3141,-3.3143,-3.3148,-3.3324,-3.3364,-3.3488,-3.3261,-3.3264,-3.3266,0,-3.328,-3.3283,-3.3358,-3.3332,-3.334,-3.3371,-3.3375,-3.3392,-3.338,-3.3361,-3.3363,-3.3317,-3.3355,-3.3284,-3.3336,-3.3286,-3.3295,-3.3284,-3.3288,-3.329,-3.3213,-3.3333,-3.3526,-3.3546,-3.3291,-3.3289,-3.3287,0,-3.3421,-3.3444,-3.3492,-3.349,-3.3461,-3.3485,-3.3474,-3.3459,-3.3467,-3.347,-3.3475,-3.3482,-3.3487,-3.3495,-3.3453,-3.3405,-3.3511,-3.3436,-3.3497,-3.3499,-3.3524,-3.3523,-3.3723,-3.3527,-3.3527,-3.3527,-3.3526,0,-3.3569,-3.3618,-3.3555,-3.3585,-3.3638,-3.3584,-3.3638,-3.362,-3.3607,-3.3633,-3.3572,-3.3598,-3.354,-3.356,-3.3527,-3.3576,-3.3578,-3.3565,-3.3556,-3.3571,-3.3574,-3.3578,-3.3569,-3.3532,-3.353,-3.353,-3.3529,0,-3.3736,-3.3696,-3.3744,-3.3712,-3.3706,-3.3747,-3.372,-3.3747,-3.372,-3.3753,-3.3758,-3.3716,-3.3736,-3.3695,-3.371,-3.3688,-3.3758,-3.3734,-3.3762,-3.3755,-3.3819,-3.3815,-3.403,-3.4056,-3.3843,-3.3845,-3.3846,0,-3.3834,-3.387,-3.3843,-3.3855,-3.3848,-3.3869,-3.3877,-3.3825,-3.3835,-3.3826,-3.3855,-3.387,-3.3879,-3.3916,-3.3887,-3.3899,-3.3877,-3.3951,-3.3878,-3.3893,-3.388,-3.3879,-3.3883,-3.3967,-3.397,-3.3972,-3.3973,0,-3.4013,-3.3991,-3.4004,-3.4011,-3.4021,-3.4024,-3.4023,-3.4037,-3.3982,-3.3997,-3.4017,-3.4025,-3.404,-3.4057,-3.4062,-3.4051,-3.4005,-3.3996,-3.4012,-3.4029,-3.4044,-3.4038,-3.3805,-3.3992,-3.399,-3.3989,-3.3988,-3.3987,-3.4149,-3.4178,-3.4164,-3.4181,-3.4174,-3.4175,-3.4199,-3.4175,-3.419,-3.4199,-3.4167,-3.4195,-3.4184,-3.4186,-3.418,-3.4202,-3.4169,-3.419,-3.4196,-3.4203,-3.4214,-3.4039,-3.4203,-3.4202,-3.4202,-3.4201,-3.4201,0,-3.4326,-3.4313,-3.4329,-3.4329,-3.4343,-3.4296,-3.4292,-3.4307,-3.4332,-3.4326,-3.4336,-3.4361,-3.4377,-3.435,-3.4362,-3.4385,-3.4363,-3.439,-3.4388,-3.4387,-3.4242,-3.4229,-3.4407,-3.4407,-3.4407,-3.4407,-3.4407,-3.4406,-3.4419,-3.4467,-3.4444,-3.4489,-3.4475,-3.4502,-3.4504,-3.4505,-3.4499,-3.4529,-3.4542,-3.4523,-3.4509,-3.452,-3.4533,-3.4524,-3.4533,-3.4567,-3.4552,-3.4417,-3.4397,-3.4378,-3.4365,-3.4569,-3.4569,-3.4695,-3.4696,-3.4697]},{"header":{"parameterUnit":"m.s-1","parameterCategory":1,"la1":30.2991,"la2":30.254,"lo1":-89.0895,"lo2":-89.0444,"dy":0.0017,"dx":0.0017,"nx":28,"ny":28,"refTime":"2024-10-15T21:00:00:Z","depth":0,"parameterNumber":3,"parameterNumberName":"V-component_of_WINDS"},"data":[0,0,0,0,0,0,0,0,0,0,0,0,0,0,0,0,0,0,0,0,0,0,0,0,0,0,0,0,0,0,0,0,0,0,0,0,0,0,0,0,0,0,0,0,0,0,0,0,0,0,0,0,0,0,0,0,0,0,-2.0634,-2.0634,0,-2.0659,-2.0659,-2.066,-2.0637,-2.0636,-2.0635,-2.0635,-2.0659,-2.0661,-2.0662,0,0,0,0,0,0,0,0,0,0,0,0,0,-2.0565,-2.0567,-2.0634,-2.0634,-2.0634,-2.0659,-2.0659,-2.066,-2.0637,-2.0636,-2.0635,-2.0634,-2.0659,-2.0661,-2.0662,0,0,0,0,0,0,0,0,0,0,0,0,0,-2.0593,-2.0567,-2.0634,-2.0626,-2.0626,-2.0659,-2.0659,-2.066,-2.0638,-2.0636,-2.0635,-2.0634,-2.0658,-2.066,-2.0663,-2.0704,0,0,-2.067,-2.0671,0,0,0,0,0,0,0,0,-2.0592,-2.0596,-2.0627,-2.0627,-2.0626,-2.0644,-2.0644,-2.0675,-2.0638,-2.0633,-2.0635,-2.0633,-2.0655,-2.0658,-2.0665,-2.0705,-2.0706,-2.067,-2.0671,-2.0672,-2.0673,0,0,0,0,0,0,0,-2.059,-2.0594,-2.0644,-2.0628,-2.0627,-2.0621,-2.0624,-2.065,-2.0651,-2.0633,-2.0632,-2.0635,-2.0655,-2.0663,-2.0666,-2.0707,-2.067,-2.0672,-2.0673,-2.0674,-2.0782,-2.0784,0,0,0,0,0,0,-2.0589,-2.0593,-2.0643,-2.0644,-2.0605,-2.0624,-2.0626,-2.0639,-2.0651,-2.0652,-2.0636,-2.0634,-2.066,-2.0663,-2.0666,-2.0716,-2.0672,-2.0674,-2.0676,-2.0781,-2.0782,-2.0784,0,0,0,0,0,0,-2.0587,-2.0593,-2.0642,-2.0618,-2.0624,-2.0626,-2.0641,-2.0641,-2.0649,-2.0653,-2.0653,-2.0645,-2.0659,-2.0663,-2.0695,-2.0717,-2.0675,-2.0677,-2.0779,-2.0781,-2.0783,-2.0816,0,0,0,0,0,0,-2.0585,-2.0593,-2.0609,-2.0619,-2.0625,-2.0671,-2.0642,-2.0642,-2.0653,-2.065,-2.0661,-2.0662,-2.0658,-2.0692,-2.0697,-2.0719,-2.0679,-2.0777,-2.078,-2.0783,-2.0813,-2.0819,-2.0825,0,0,0,0,0,-2.0583,-2.0617,-2.061,-2.0616,-2.0646,-2.0672,-2.0676,-2.0671,-2.0655,-2.0671,-2.0674,-2.0661,-2.0713,-2.0695,-2.0701,-2.0724,-2.0776,-2.0779,-2.0782,-2.0811,-2.0818,-2.0825,0,0,0,0,0,0,-2.0609,-2.0618,-2.0611,-2.0649,-2.066,-2.0668,-2.0688,-2.0679,-2.0695,-2.0692,-2.0685,-2.0687,-2.0721,-2.0725,-2.0705,-2.0765,-2.0742,-2.0747,-2.0761,-2.0769,-2.0774,-2.0773,-2.0681,0,0,0,0,0,-2.062,-2.0641,-2.0647,-2.068,-2.0686,-2.0686,-2.0697,-2.0693,-2.0704,-2.0709,-2.0713,-2.0724,-2.0743,-2.0756,-2.0773,-2.0813,-2.0816,-2.0832,-2.0838,-2.0842,-2.0847,-2.0869,-2.0877,-2.0795,-2.0795,-2.0795,0,0,-2.0641,-2.0648,-2.0662,-2.0685,-2.0694,-2.0715,-2.069,-2.0714,-2.073,-2.0712,-2.0743,-2.0747,-2.0758,-2.0795,-2.0811,-2.0799,-2.087,-2.0847,-2.085,-2.0853,-2.0873,-2.0881,-2.0888,-2.0798,-2.0797,-2.0797,0,0,-2.0692,-2.0699,-2.0728,-2.0736,-2.0749,-2.0749,-2.0756,-2.0766,-2.0768,-2.0798,-2.0785,-2.0804,-2.0836,-2.0845,-2.0854,-2.0908,-2.0897,-2.0913,-2.0944,-2.0966,-2.0972,-2.0978,-2.0998,-2.1005,-2.0918,-2.0918,-2.0918,0,-2.0717,-2.075,-2.0744,-2.0769,-2.078,-2.0764,-2.0793,-2.0802,-2.0819,-2.0827,-2.0814,-2.0854,-2.0861,-2.09,-2.0913,-2.092,-2.0928,-2.0913,-2.0972,-2.0977,-2.0982,-2.1002,-2.1009,-2.092,-2.092,-2.0919,-2.0919,0,-2.078,-2.0803,-2.0825,-2.0843,-2.0856,-2.0883,-2.0881,-2.0895,-2.0889,-2.089,-2.0921,-2.0929,-2.0948,-2.0956,-2.095,-2.0994,-2.0987,-2.0973,-2.0949,-2.0992,-2.101,-2.1018,-2.0923,-2.0922,-2.0921,-2.0921,0,0,-2.0849,-2.0864,-2.0872,-2.088,-2.0893,-2.091,-2.0936,-2.0955,-2.0967,-2.098,-2.1002,-2.1029,-2.1016,-2.1026,-2.1021,-2.104,-2.1083,-2.1024,-2.1024,-2.1036,-2.1133,-2.1145,-2.1153,-2.1076,-2.1077,-2.1078,-2.1133,0,-2.0902,-2.0948,-2.0943,-2.0987,-2.1008,-2.0994,-2.1016,-2.1026,-2.1028,-2.1046,-2.1047,-2.1067,-2.1048,-2.1054,-2.1072,-2.1075,-2.1103,-2.107,-2.1097,-2.1098,-2.1096,-2.1163,-2.1175,-2.1226,-2.1139,-2.1141,-2.1141,0,-2.0969,-2.0984,-2.1031,-2.1041,-2.1049,-2.107,-2.1087,-2.1104,-2.1115,-2.1115,-2.1126,-2.1118,-2.1144,-2.1119,-2.1155,-2.1133,-2.1143,-2.1145,-2.1147,-2.1151,-2.1123,-2.1169,-2.1242,-2.125,-2.1152,-2.1151,-2.1151,0,-2.1017,-2.1049,-2.1081,-2.1088,-2.11,-2.1115,-2.112,-2.113,-2.1141,-2.1156,-2.1164,-2.1181,-2.1191,-2.1204,-2.12,-2.1182,-2.1237,-2.1212,-2.1238,-2.1239,-2.1252,-2.1252,-2.1329,-2.1256,-2.1256,-2.1256,-2.1256,0,-2.1076,-2.1105,-2.1102,-2.1122,-2.1154,-2.1148,-2.118,-2.1184,-2.1192,-2.1212,-2.12,-2.1219,-2.1212,-2.1231,-2.1228,-2.1259,-2.1263,-2.1263,-2.1263,-2.1266,-2.1266,-2.1273,-2.127,-2.1258,-2.1258,-2.1257,-2.1257,0,-2.1136,-2.1134,-2.1169,-2.1177,-2.118,-2.1203,-2.121,-2.1229,-2.1229,-2.1255,-2.126,-2.126,-2.1282,-2.1279,-2.1302,-2.13,-2.1339,-2.1333,-2.1336,-2.1335,-2.1362,-2.1361,-2.1449,-2.146,-2.1379,-2.138,-2.138,0,-2.1175,-2.1197,-2.1208,-2.1221,-2.1227,-2.1248,-2.126,-2.1254,-2.1267,-2.1281,-2.1298,-2.1318,-2.1335,-2.1369,-2.1371,-2.1389,-2.1384,-2.1414,-2.1387,-2.139,-2.1387,-2.1386,-2.1388,-2.142,-2.1421,-2.1422,-2.1422,0,-2.1244,-2.1243,-2.1261,-2.1279,-2.1294,-2.1308,-2.132,-2.1331,-2.1327,-2.1342,-2.1364,-2.1376,-2.14,-2.1421,-2.1438,-2.1443,-2.1432,-2.143,-2.1438,-2.1442,-2.1443,-2.1444,-2.1352,-2.1429,-2.1428,-2.1428,-2.1427,-2.1427,-2.1296,-2.1315,-2.1326,-2.1347,-2.1355,-2.1367,-2.1386,-2.1388,-2.1406,-2.1426,-2.1421,-2.1446,-2.1456,-2.1478,-2.1485,-2.1504,-2.1493,-2.1503,-2.1506,-2.1509,-2.1513,-2.1439,-2.1507,-2.1506,-2.1506,-2.1506,-2.1506,0,-2.1366,-2.1372,-2.1391,-2.1409,-2.1426,-2.1414,-2.1427,-2.1441,-2.1464,-2.1474,-2.149,-2.1515,-2.1535,-2.1538,-2.1557,-2.1572,-2.1567,-2.1577,-2.1577,-2.1578,-2.1521,-2.1514,-2.158,-2.158,-2.158,-2.158,-2.158,-2.158,-2.1405,-2.1437,-2.1437,-2.1473,-2.1479,-2.1504,-2.1513,-2.1523,-2.1532,-2.1561,-2.1577,-2.1579,-2.1587,-2.1606,-2.1623,-2.1624,-2.1632,-2.1644,-2.1643,-2.1589,-2.1582,-2.1575,-2.1568,-2.1645,-2.1645,-2.1698,-2.1699,-2.1699]}]]